[[{"header":{"parameterUnit":"m.s-1","parameterCategory":1,"la1":30.2991,"la2":30.254,"lo1":-89.0895,"lo2":-89.0444,"dy":0.0017,"dx":0.0017,"nx":28,"ny":28,"refTime":"2025-08-03T21:00:00:Z","depth":0,"parameterNumber":2,"parameterNumberName":"U-component_of_WINDS"},"data":[0,0,0,0,0,0,0,0,0,0,0,0,0,0,0,0,0,0,0,0,0,0,0,0,0,0,0,0,0,0,0,0,0,0,0,0,0,0,0,0,0,0,0,0,0,0,0,0,0,0,0,0,0,0,0,0,0,0,-2.3945,-2.3946,0,-2.3969,-2.3969,-2.3969,-2.3983,-2.3983,-2.3983,-2.3984,-2.4006,-2.4006,-2.4007,0,0,0,0,0,0,0,0,0,0,0,0,0,-2.3912,-2.3912,-2.3945,-2.3946,-2.3946,-2.3968,-2.3969,-2.3969,-2.3983,-2.3983,-2.3983,-2.3984,-2.4006,-2.4006,-2.4007,0,0,0,0,0,0,0,0,0,0,0,0,0,-2.393,-2.3913,-2.3945,-2.3956,-2.3957,-2.3968,-2.3969,-2.3969,-2.3983,-2.3983,-2.3984,-2.3984,-2.4006,-2.4006,-2.4007,-2.401,0,0,-2.401,-2.401,0,0,0,0,0,0,0,0,-2.3929,-2.3931,-2.3954,-2.3955,-2.3956,-2.3973,-2.3965,-2.3983,-2.3983,-2.3973,-2.3984,-2.3984,-2.3995,-2.3997,-2.4001,-2.4011,-2.4012,-2.401,-2.401,-2.401,-2.4011,0,0,0,0,0,0,0,-2.3928,-2.393,-2.3954,-2.3954,-2.3956,-2.3959,-2.3962,-2.3969,-2.3983,-2.3974,-2.3975,-2.3978,-2.3996,-2.4,-2.4001,-2.4012,-2.401,-2.401,-2.4011,-2.4011,-2.4025,-2.4025,0,0,0,0,0,0,-2.3925,-2.3929,-2.3954,-2.3955,-2.3943,-2.3959,-2.3962,-2.3968,-2.3983,-2.3986,-2.3978,-2.3978,-2.3998,-2.4,-2.4002,-2.4006,-2.401,-2.4011,-2.4012,-2.4025,-2.4025,-2.4025,0,0,0,0,0,0,-2.3924,-2.3927,-2.3953,-2.3942,-2.3946,-2.396,-2.3966,-2.3968,-2.3972,-2.3986,-2.3988,-2.3979,-2.3999,-2.4001,-2.4008,-2.4007,-2.4012,-2.4012,-2.4026,-2.4025,-2.4025,-2.4014,0,0,0,0,0,0,-2.3923,-2.3927,-2.3928,-2.3942,-2.3946,-2.3958,-2.3966,-2.3968,-2.3974,-2.3975,-2.3988,-2.399,-2.3999,-2.4007,-2.4009,-2.4008,-2.4013,-2.4026,-2.4026,-2.4025,-2.4014,-2.4013,-2.4013,0,0,0,0,0,-2.3922,-2.3924,-2.3928,-2.3931,-2.3949,-2.3958,-2.3961,-2.3971,-2.3974,-2.3975,-2.3984,-2.399,-2.4007,-2.4007,-2.401,-2.4009,-2.4026,-2.4026,-2.4025,-2.4015,-2.4014,-2.4013,0,0,0,0,0,0,-2.3908,-2.3926,-2.3931,-2.3937,-2.3946,-2.3961,-2.3963,-2.3969,-2.3977,-2.3978,-2.399,-2.3992,-2.3998,-2.4004,-2.4004,-2.4013,-2.4017,-2.4017,-2.4008,-2.4007,-2.4006,-2.4004,-2.4014,0,0,0,0,0,-2.3906,-2.3913,-2.3928,-2.3932,-2.3936,-2.3949,-2.3953,-2.396,-2.397,-2.3974,-2.3983,-2.3992,-2.3999,-2.4003,-2.4011,-2.4016,-2.4018,-2.4017,-2.4016,-2.4015,-2.4015,-2.4018,-2.4017,-2.4025,-2.4025,-2.4025,0,0,-2.3901,-2.3912,-2.3915,-2.3929,-2.3937,-2.3944,-2.3952,-2.3958,-2.3963,-2.3975,-2.3982,-2.3989,-2.3999,-2.4005,-2.4008,-2.401,-2.4013,-2.4015,-2.4014,-2.4014,-2.4017,-2.4017,-2.4016,-2.4024,-2.4024,-2.4024,0,0,-2.3896,-2.3905,-2.3909,-2.3917,-2.3929,-2.3938,-2.3939,-2.3952,-2.3957,-2.3965,-2.3974,-2.3979,-2.3992,-2.3999,-2.4004,-2.4002,-2.4008,-2.4004,-2.3999,-2.4002,-2.4001,-2.4001,-2.4,-2.3999,-2.4004,-2.4004,-2.4004,0,-2.3889,-2.3899,-2.3911,-2.3917,-2.3923,-2.3934,-2.3938,-2.3945,-2.3959,-2.3962,-2.3965,-2.3981,-2.3989,-2.3997,-2.3996,-2.4,-2.4001,-2.4002,-2.4,-2.4,-2.4,-2.3999,-2.3998,-2.4003,-2.4004,-2.4004,-2.4004,0,-2.3889,-2.3897,-2.3899,-2.3912,-2.3918,-2.3923,-2.3935,-2.394,-2.3947,-2.3955,-2.3962,-2.3972,-2.3982,-2.3984,-2.399,-2.3992,-2.3994,-2.3998,-2.4003,-2.3998,-2.3998,-2.3997,-2.4003,-2.4003,-2.4003,-2.4003,0,0,-2.3876,-2.3896,-2.3896,-2.3903,-2.3917,-2.3922,-2.3928,-2.3938,-2.3942,-2.3951,-2.3956,-2.3966,-2.397,-2.3976,-2.3984,-2.3986,-2.3983,-2.399,-2.3991,-2.3988,-2.3986,-2.3982,-2.3982,-2.3988,-2.3988,-2.3988,-2.3985,0,-2.3873,-2.3884,-2.3894,-2.3902,-2.3908,-2.3919,-2.3924,-2.3933,-2.3941,-2.3947,-2.3955,-2.3962,-2.3968,-2.3972,-2.3974,-2.3983,-2.3983,-2.3983,-2.3992,-2.3992,-2.3989,-2.3982,-2.3978,-2.3975,-2.3985,-2.3985,-2.3985,0,-2.387,-2.3879,-2.3887,-2.3901,-2.3904,-2.3908,-2.3918,-2.3924,-2.3935,-2.394,-2.3947,-2.3955,-2.3961,-2.3965,-2.3974,-2.3974,-2.3978,-2.3983,-2.3983,-2.3984,-2.3988,-2.3982,-2.3974,-2.3973,-2.3985,-2.3985,-2.3985,0,-2.3859,-2.3873,-2.388,-2.3885,-2.3901,-2.3904,-2.3911,-2.3921,-2.3926,-2.3935,-2.3939,-2.3948,-2.3953,-2.3959,-2.3969,-2.3971,-2.3977,-2.3982,-2.3981,-2.3981,-2.3981,-2.3981,-2.3973,-2.3984,-2.3984,-2.3984,-2.3984,0,-2.3854,-2.3859,-2.3875,-2.3879,-2.3884,-2.3896,-2.3901,-2.3909,-2.3918,-2.3924,-2.3934,-2.3938,-2.3951,-2.3958,-2.3965,-2.3971,-2.3973,-2.3978,-2.398,-2.3977,-2.3976,-2.3979,-2.3979,-2.3984,-2.3984,-2.3984,-2.3984,0,-2.3843,-2.3854,-2.3862,-2.3877,-2.3881,-2.3884,-2.3896,-2.39,-2.3909,-2.3915,-2.3918,-2.3931,-2.3939,-2.3949,-2.396,-2.3966,-2.397,-2.3974,-2.3967,-2.3968,-2.3966,-2.3966,-2.396,-2.396,-2.3971,-2.3971,-2.3971,0,-2.3838,-2.3842,-2.3857,-2.3862,-2.3869,-2.3876,-2.3881,-2.3894,-2.3899,-2.3911,-2.3914,-2.3923,-2.393,-2.3942,-2.3953,-2.3961,-2.3965,-2.3962,-2.3966,-2.3963,-2.3964,-2.3964,-2.3964,-2.3961,-2.3961,-2.396,-2.396,0,-2.383,-2.3835,-2.3843,-2.3853,-2.386,-2.3868,-2.3877,-2.388,-2.3894,-2.3899,-2.3908,-2.3914,-2.3925,-2.3934,-2.3944,-2.3951,-2.3958,-2.3959,-2.3959,-2.3956,-2.3952,-2.3954,-2.3964,-2.3959,-2.3959,-2.3959,-2.3959,-2.3959,-2.3821,-2.3825,-2.3837,-2.3845,-2.3853,-2.3861,-2.3866,-2.3875,-2.3882,-2.3893,-2.39,-2.3908,-2.3918,-2.3933,-2.3939,-2.3945,-2.3948,-2.3948,-2.3949,-2.3948,-2.3947,-2.3951,-2.3947,-2.3947,-2.3947,-2.3947,-2.3947,0,-2.3813,-2.3821,-2.3829,-2.3841,-2.3848,-2.3854,-2.3864,-2.3869,-2.3877,-2.3886,-2.3894,-2.3903,-2.3912,-2.3923,-2.3932,-2.3935,-2.3938,-2.3937,-2.3936,-2.3938,-2.3944,-2.3943,-2.3934,-2.3934,-2.3934,-2.3934,-2.3934,-2.3934,-2.3809,-2.3816,-2.3823,-2.3834,-2.3842,-2.385,-2.3855,-2.3863,-2.387,-2.3881,-2.3888,-2.3895,-2.3905,-2.3915,-2.3923,-2.3926,-2.3929,-2.3926,-2.393,-2.3936,-2.3937,-2.3939,-2.3937,-2.3927,-2.3927,-2.3923,-2.3923,-2.3923]},{"header":{"parameterUnit":"m.s-1","parameterCategory":1,"la1":30.2991,"la2":30.254,"lo1":-89.0895,"lo2":-89.0444,"dy":0.0017,"dx":0.0017,"nx":28,"ny":28,"refTime":"2025-08-03T21:00:00:Z","depth":0,"parameterNumber":3,"parameterNumberName":"V-component_of_WINDS"},"data":[0,0,0,0,0,0,0,0,0,0,0,0,0,0,0,0,0,0,0,0,0,0,0,0,0,0,0,0,0,0,0,0,0,0,0,0,0,0,0,0,0,0,0,0,0,0,0,0,0,0,0,0,0,0,0,0,0,0,2.3811,2.3811,0,2.3828,2.3828,2.3828,2.3844,2.3844,2.3845,2.3845,2.3861,2.3862,2.3862,0,0,0,0,0,0,0,0,0,0,0,0,0,2.3793,2.3794,2.3811,2.3811,2.3812,2.3828,2.3828,2.3828,2.3844,2.3844,2.3845,2.3845,2.3861,2.3862,2.3862,0,0,0,0,0,0,0,0,0,0,0,0,0,2.3805,2.3794,2.3811,2.3821,2.3823,2.3828,2.3828,2.3828,2.3844,2.3844,2.3845,2.3845,2.3861,2.3862,2.3862,2.3858,0,0,2.3863,2.3863,0,0,0,0,0,0,0,0,2.3804,2.3805,2.382,2.3821,2.3822,2.3834,2.3828,2.3838,2.3844,2.3836,2.3845,2.3845,2.3852,2.3853,2.3856,2.3859,2.386,2.3863,2.3863,2.3864,2.3864,0,0,0,0,0,0,0,2.3803,2.3805,2.3818,2.382,2.3821,2.3825,2.3827,2.383,2.3842,2.3837,2.3838,2.384,2.3853,2.3855,2.3856,2.386,2.3863,2.3863,2.3864,2.3864,2.3862,2.3862,0,0,0,0,0,0,2.3801,2.3804,2.3817,2.3818,2.3814,2.3825,2.3828,2.383,2.3842,2.3844,2.3839,2.384,2.3855,2.3856,2.3857,2.3854,2.3864,2.3864,2.3864,2.3863,2.3862,2.3862,0,0,0,0,0,0,2.38,2.3802,2.3817,2.3811,2.3814,2.3825,2.3828,2.383,2.3833,2.3844,2.3846,2.384,2.3855,2.3856,2.3858,2.3855,2.3864,2.3864,2.3863,2.3862,2.3862,2.3848,0,0,0,0,0,0,2.38,2.3802,2.38,2.3811,2.3814,2.3817,2.3828,2.383,2.3833,2.3835,2.3845,2.3847,2.3855,2.3857,2.3858,2.3856,2.3865,2.3863,2.3863,2.3862,2.3849,2.3847,2.3846,0,0,0,0,0,2.3799,2.3795,2.38,2.3801,2.3812,2.3817,2.3818,2.3828,2.3833,2.3832,2.3839,2.3847,2.3855,2.3857,2.3859,2.3856,2.3863,2.3863,2.3862,2.3849,2.3847,2.3846,0,0,0,0,0,0,2.3783,2.3797,2.3802,2.3802,2.3808,2.382,2.3818,2.3825,2.383,2.3832,2.3843,2.3845,2.3846,2.3851,2.3854,2.3854,2.386,2.386,2.385,2.3848,2.3847,2.3846,2.3865,0,0,0,0,0,2.3779,2.3782,2.3794,2.3792,2.3795,2.3806,2.3809,2.3816,2.3823,2.3825,2.3833,2.384,2.3844,2.3846,2.3851,2.385,2.3852,2.3848,2.3847,2.3845,2.3845,2.3846,2.3844,2.386,2.386,2.386,0,0,2.3771,2.3779,2.378,2.3789,2.3795,2.3798,2.3808,2.3811,2.3813,2.3826,2.3828,2.3834,2.3842,2.3843,2.3843,2.3847,2.3842,2.3845,2.3844,2.3844,2.3845,2.3844,2.3842,2.386,2.386,2.386,0,0,2.3759,2.3765,2.3765,2.3771,2.378,2.3787,2.3787,2.3798,2.3803,2.3805,2.3815,2.3818,2.3825,2.3831,2.3835,2.3826,2.3833,2.3827,2.3819,2.382,2.3818,2.3817,2.3815,2.3814,2.3827,2.3827,2.3827,0,2.3748,2.3753,2.3764,2.3766,2.377,2.3782,2.3782,2.3787,2.3797,2.38,2.3804,2.3813,2.382,2.3822,2.382,2.3823,2.3824,2.3826,2.3818,2.3817,2.3816,2.3814,2.3813,2.3826,2.3826,2.3826,2.3826,0,2.374,2.3743,2.3742,2.3752,2.3755,2.3756,2.3768,2.377,2.3777,2.3784,2.3788,2.3796,2.3803,2.3804,2.381,2.3808,2.381,2.3816,2.3823,2.3814,2.3812,2.3811,2.3825,2.3825,2.3825,2.3825,0,0,2.3717,2.3734,2.3733,2.3738,2.3749,2.3752,2.3754,2.3761,2.3763,2.377,2.3772,2.3779,2.3785,2.3789,2.3796,2.3797,2.379,2.3803,2.3803,2.3801,2.3789,2.3785,2.3784,2.3795,2.3795,2.3795,2.3789,0,2.3707,2.3711,2.3721,2.3723,2.3726,2.3739,2.374,2.3748,2.3755,2.3759,2.3767,2.3772,2.3779,2.3782,2.3783,2.3791,2.3788,2.3792,2.3798,2.3798,2.3796,2.3783,2.3778,2.3771,2.3788,2.3788,2.3788,0,2.3695,2.3702,2.3704,2.3716,2.3718,2.3719,2.3727,2.3731,2.374,2.3745,2.3751,2.3759,2.3762,2.3769,2.3774,2.3776,2.378,2.3784,2.3784,2.3785,2.3792,2.3784,2.3769,2.3768,2.3787,2.3787,2.3787,0,2.3679,2.3689,2.3691,2.3695,2.3709,2.371,2.3716,2.3725,2.3729,2.3736,2.3739,2.3746,2.375,2.3756,2.3766,2.377,2.377,2.3778,2.3775,2.3775,2.3775,2.3775,2.3761,2.3776,2.3776,2.3776,2.3776,0,2.3667,2.3668,2.3684,2.3686,2.3687,2.3699,2.3701,2.3708,2.3716,2.3719,2.373,2.3733,2.3747,2.3752,2.376,2.3764,2.3765,2.377,2.3772,2.3769,2.3768,2.3771,2.3772,2.3776,2.3776,2.3776,2.3776,0,2.3649,2.366,2.3664,2.3677,2.3681,2.3681,2.3693,2.3695,2.3703,2.3708,2.3709,2.3722,2.3729,2.374,2.3749,2.3755,2.3757,2.376,2.3754,2.3755,2.3752,2.3753,2.374,2.374,2.3755,2.3755,2.3755,0,2.3641,2.3642,2.3656,2.3659,2.3665,2.367,2.3674,2.3686,2.369,2.3701,2.3702,2.371,2.3716,2.3726,2.3736,2.3744,2.3748,2.3743,2.3749,2.3746,2.3748,2.3748,2.3749,2.3742,2.3741,2.3741,2.3741,0,2.3625,2.3631,2.3637,2.3645,2.365,2.3657,2.3664,2.3666,2.368,2.3684,2.3691,2.3696,2.3707,2.3714,2.3723,2.373,2.3738,2.3739,2.3739,2.3736,2.3733,2.3735,2.375,2.3739,2.3739,2.374,2.374,2.374,2.3612,2.3614,2.3624,2.3631,2.3638,2.3645,2.3648,2.3657,2.3663,2.3672,2.3679,2.3686,2.3696,2.3709,2.3715,2.3721,2.3724,2.3724,2.3724,2.3724,2.3723,2.3732,2.3722,2.3723,2.3723,2.3723,2.3723,0,2.3598,2.3605,2.3611,2.3621,2.3627,2.3634,2.3643,2.3647,2.3653,2.3662,2.3668,2.3677,2.3684,2.3695,2.3704,2.3706,2.371,2.3708,2.3708,2.371,2.3719,2.3719,2.3705,2.3705,2.3705,2.3705,2.3705,2.3705,2.3591,2.3594,2.3601,2.3609,2.3617,2.3623,2.3628,2.3635,2.3642,2.3651,2.3657,2.3665,2.3675,2.3684,2.3692,2.3695,2.3698,2.3694,2.3699,2.3707,2.3709,2.3711,2.371,2.3695,2.3695,2.3689,2.3689,2.3689]}]]